Wetterdaten: Woche 14.11.16 - 20.11.16 (KW46)
Datum Zeit Temp. I. Temp. A. Feuchte I. Feuchte A. Luftdruck Regen Wind Richtung Sonnenschein UV Solar Taupunkt Windchill Windben
14.11.2016 00:00 23,6 C -3,6 C 50 % 87 % 1033,4 hPa 0,0 l/m 2,2 km/h (1 Bft) O-NO 0,00 h 0,0 UV-I 0 W/m -5,5 C -3,6 C 4,6 km/h (1 Bft)
14.11.2016 01:00 23,4 C -4,0 C 50 % 87 % 1033,7 hPa 0,0 l/m 0,5 km/h (0 Bft) O 0,00 h 0,0 UV-I 0 W/m -5,9 C -4,0 C 1,0 km/h (0 Bft)
14.11.2016 02:00 23,4 C -4,8 C 51 % 88 % 1033,9 hPa 0,0 l/m 0,5 km/h (0 Bft) N-NW 0,00 h 0,0 UV-I 0 W/m -6,5 C -4,8 C 1,3 km/h (1 Bft)
14.11.2016 03:00 23,3 C -5,7 C 52 % 89 % 1033,9 hPa 0,0 l/m 0,6 km/h (0 Bft) N-NO 0,00 h 0,0 UV-I 0 W/m -7,2 C -5,7 C 1,2 km/h (1 Bft)
14.11.2016 04:00 23,2 C -6,4 C 52 % 90 % 1034,2 hPa 0,0 l/m 0,0 km/h (0 Bft) N-NO 0,00 h 0,0 UV-I 0 W/m -7,8 C -6,4 C 0,2 km/h (0 Bft)
14.11.2016 05:00 23,2 C -6,8 C 51 % 90 % 1034,5 hPa 0,0 l/m 0,0 km/h (0 Bft) N-NO 0,00 h 0,0 UV-I 0 W/m -8,1 C -6,8 C 0,1 km/h (0 Bft)
14.11.2016 06:00 23,0 C -7,1 C 52 % 91 % 1034,8 hPa 0,0 l/m 0,2 km/h (0 Bft) N-NO 0,00 h 0,0 UV-I 0 W/m -8,3 C -7,1 C 0,4 km/h (0 Bft)
14.11.2016 07:00 23,0 C -7,3 C 52 % 91 % 1035,4 hPa 0,0 l/m 1,1 km/h (1 Bft) O 0,00 h 0,0 UV-I 14 W/m -8,5 C -7,3 C 2,2 km/h (1 Bft)
14.11.2016 08:00 23,1 C -5,2 C 52 % 92 % 1036,1 hPa 0,0 l/m 0,0 km/h (0 Bft) N 0,00 h 0,5 UV-I 98 W/m -6,4 C -5,2 C 0,0 km/h (0 Bft)
14.11.2016 09:00 23,2 C -1,5 C 52 % 86 % 1036,5 hPa 0,0 l/m 0,0 km/h (0 Bft) O 0,93 h 0,7 UV-I 219 W/m -3,5 C -1,5 C 0,2 km/h (0 Bft)
14.11.2016 10:00 23,2 C 0,9 C 52 % 79 % 1036,2 hPa 0,0 l/m 0,5 km/h (0 Bft) SO 1,00 h 1,0 UV-I 324 W/m -2,4 C 0,9 C 1,2 km/h (1 Bft)
14.11.2016 11:00 23,3 C 2,2 C 52 % 73 % 1035,9 hPa 0,0 l/m 5,7 km/h (1 Bft) SO 1,00 h 1,3 UV-I 361 W/m -2,2 C 1,4 C 10,0 km/h (2 Bft)
14.11.2016 12:00 23,4 C 2,6 C 52 % 70 % 1035,6 hPa 0,0 l/m 3,2 km/h (1 Bft) O-SO 1,00 h 1,2 UV-I 355 W/m -2,3 C 2,5 C 7,2 km/h (2 Bft)
14.11.2016 13:00 23,4 C 2,5 C 50 % 68 % 1035,4 hPa 0,0 l/m 6,0 km/h (2 Bft) SO 1,00 h 1,0 UV-I 291 W/m -2,7 C 1,5 C 11,8 km/h (2 Bft)
14.11.2016 14:00 23,5 C 2,2 C 48 % 69 % 1034,8 hPa 0,0 l/m 7,4 km/h (2 Bft) SO 0,77 h 0,6 UV-I 178 W/m -2,8 C 0,6 C 12,1 km/h (2 Bft)
14.11.2016 15:00 23,5 C 1,7 C 47 % 70 % 1034,4 hPa 0,0 l/m 4,4 km/h (1 Bft) O-SO 0,00 h 0,0 UV-I 69 W/m -3,1 C 1,4 C 8,7 km/h (2 Bft)
14.11.2016 16:00 23,5 C 0,7 C 47 % 74 % 1034,3 hPa 0,0 l/m 1,2 km/h (1 Bft) O-SO 0,00 h 0,0 UV-I 14 W/m -3,3 C 0,7 C 2,8 km/h (1 Bft)
14.11.2016 17:00 23,4 C -0,3 C 48 % 79 % 1034,5 hPa 0,0 l/m 0,7 km/h (0 Bft) O-NO 0,00 h 0,0 UV-I 0 W/m -3,5 C -0,3 C 1,8 km/h (1 Bft)
14.11.2016 18:00 23,5 C -1,4 C 48 % 84 % 1034,7 hPa 0,0 l/m 0,2 km/h (0 Bft) O 0,00 h 0,0 UV-I 0 W/m -3,8 C -1,4 C 0,9 km/h (0 Bft)
14.11.2016 19:00 23,7 C -2,2 C 48 % 87 % 1034,7 hPa 0,0 l/m 1,7 km/h (1 Bft) O-SO 0,00 h 0,0 UV-I 0 W/m -4,1 C -2,2 C 2,9 km/h (1 Bft)
14.11.2016 20:00 23,6 C -2,1 C 48 % 88 % 1034,7 hPa 0,0 l/m 2,7 km/h (1 Bft) SO 0,00 h 0,0 UV-I 0 W/m -3,8 C -2,1 C 4,6 km/h (1 Bft)
14.11.2016 21:00 23,7 C -2,5 C 49 % 87 % 1034,7 hPa 0,0 l/m 0,5 km/h (0 Bft) NW 0,00 h 0,0 UV-I 0 W/m -4,3 C -2,5 C 0,9 km/h (0 Bft)
14.11.2016 22:00 23,6 C -3,4 C 47 % 87 % 1034,5 hPa 0,0 l/m 0,0 km/h (0 Bft) N 0,00 h 0,0 UV-I 0 W/m -5,2 C -3,4 C 0,0 km/h (0 Bft)
14.11.2016 23:00 23,3 C -4,2 C 48 % 89 % 1034,2 hPa 0,0 l/m 0,1 km/h (0 Bft) NW 0,00 h 0,0 UV-I 0 W/m -5,8 C -4,2 C 0,1 km/h (0 Bft)
15.11.2016 00:00 23,2 C -4,8 C 48 % 90 % 1034,1 hPa 0,0 l/m 0,2 km/h (0 Bft) NW 0,00 h 0,0 UV-I 0 W/m -6,2 C -4,8 C 0,5 km/h (0 Bft)
15.11.2016 01:00 23,1 C -5,4 C 49 % 90 % 1033,6 hPa 0,0 l/m 0,3 km/h (0 Bft) NW 0,00 h 0,0 UV-I 0 W/m -6,8 C -5,4 C 0,6 km/h (0 Bft)
15.11.2016 02:00 22,9 C -5,4 C 49 % 92 % 1033,2 hPa 0,0 l/m 0,2 km/h (0 Bft) O-NO 0,00 h 0,0 UV-I 0 W/m -6,5 C -5,4 C 0,6 km/h (0 Bft)
15.11.2016 03:00 22,9 C -5,1 C 49 % 92 % 1032,6 hPa 0,0 l/m 1,1 km/h (1 Bft) O-SO 0,00 h 0,0 UV-I 0 W/m -6,1 C -5,1 C 1,9 km/h (1 Bft)
15.11.2016 04:00 22,9 C -4,0 C 50 % 94 % 1032,5 hPa 0,0 l/m 1,4 km/h (1 Bft) SO 0,00 h 0,0 UV-I 0 W/m -4,9 C -4,0 C 2,5 km/h (1 Bft)
15.11.2016 05:00 22,8 C -3,4 C 50 % 94 % 1032,5 hPa 0,0 l/m 1,7 km/h (1 Bft) S 0,00 h 0,0 UV-I 0 W/m -4,2 C -3,4 C 3,2 km/h (1 Bft)
15.11.2016 06:00 22,8 C -2,5 C 50 % 92 % 1032,1 hPa 0,0 l/m 5,1 km/h (1 Bft) S 0,00 h 0,0 UV-I 0 W/m -3,5 C -2,7 C 7,9 km/h (2 Bft)
15.11.2016 07:00 22,8 C -2,1 C 50 % 91 % 1032,1 hPa 0,0 l/m 6,6 km/h (2 Bft) S 0,00 h 0,0 UV-I 10 W/m -3,4 C -3,1 C 9,6 km/h (2 Bft)
15.11.2016 08:00 23,1 C -1,9 C 51 % 90 % 1032,0 hPa 0,0 l/m 7,4 km/h (2 Bft) S 0,00 h 0,0 UV-I 33 W/m -3,3 C -3,4 C 11,8 km/h (2 Bft)
15.11.2016 09:00 23,4 C -1,7 C 50 % 91 % 1031,9 hPa 0,0 l/m 9,3 km/h (2 Bft) S 0,00 h 0,0 UV-I 46 W/m -3,0 C -4,7 C 14,2 km/h (3 Bft)
15.11.2016 10:00 23,2 C -1,7 C 48 % 91 % 1031,5 hPa 0,0 l/m 11,8 km/h (2 Bft) S 0,00 h 0,5 UV-I 65 W/m -2,9 C -6,6 C 18,3 km/h (3 Bft)
15.11.2016 11:00 23,2 C -1,2 C 48 % 91 % 1031,0 hPa 0,0 l/m 10,6 km/h (2 Bft) S 0,00 h 0,6 UV-I 76 W/m -2,5 C -5,2 C 15,9 km/h (3 Bft)
15.11.2016 12:00 23,2 C -0,9 C 49 % 91 % 1030,4 hPa 0,0 l/m 9,3 km/h (2 Bft) S 0,00 h 0,5 UV-I 63 W/m -2,2 C -3,7 C 14,6 km/h (3 Bft)
15.11.2016 13:00 23,1 C -0,7 C 48 % 92 % 1030,0 hPa 0,0 l/m 8,9 km/h (2 Bft) S 0,00 h 0,0 UV-I 40 W/m -1,9 C -3,3 C 13,5 km/h (3 Bft)
15.11.2016 14:00 23,3 C -0,6 C 47 % 93 % 1029,1 hPa 0,2 l/m 9,4 km/h (2 Bft) S 0,00 h 0,0 UV-I 25 W/m -1,5 C -3,5 C 14,3 km/h (3 Bft)
15.11.2016 15:00 23,7 C -0,3 C 47 % 94 % 1028,6 hPa 0,0 l/m 8,8 km/h (2 Bft) S 0,00 h 0,0 UV-I 10 W/m -1,1 C -2,8 C 12,6 km/h (3 Bft)
15.11.2016 16:00 23,9 C -0,0 C 48 % 95 % 1028,5 hPa 0,2 l/m 7,0 km/h (2 Bft) SW 0,00 h 0,0 UV-I 0 W/m -0,7 C -1,1 C 11,3 km/h (2 Bft)
15.11.2016 17:00 24,0 C 0,3 C 48 % 96 % 1028,2 hPa 0,2 l/m 6,4 km/h (2 Bft) S 0,00 h 0,0 UV-I 0 W/m -0,3 C -0,3 C 10,0 km/h (2 Bft)
15.11.2016 18:00 24,0 C 0,5 C 49 % 96 % 1028,0 hPa 0,2 l/m 6,1 km/h (2 Bft) S 0,00 h 0,0 UV-I 0 W/m -0,1 C -0,2 C 9,4 km/h (2 Bft)
15.11.2016 19:00 23,9 C 0,7 C 49 % 96 % 1027,8 hPa 0,0 l/m 4,8 km/h (1 Bft) S-SW 0,00 h 0,0 UV-I 0 W/m 0,1 C 0,4 C 7,8 km/h (2 Bft)
15.11.2016 20:00 23,7 C 0,8 C 49 % 96 % 1027,4 hPa 0,0 l/m 5,9 km/h (2 Bft) S-SW 0,00 h 0,0 UV-I 0 W/m 0,3 C 0,1 C 9,2 km/h (2 Bft)
15.11.2016 21:00 23,6 C 1,0 C 48 % 96 % 1027,3 hPa 0,4 l/m 5,7 km/h (1 Bft) S 0,00 h 0,0 UV-I 0 W/m 0,4 C 0,5 C 9,2 km/h (2 Bft)
15.11.2016 22:00 23,6 C 1,1 C 48 % 96 % 1026,9 hPa 0,2 l/m 6,6 km/h (2 Bft) S 0,00 h 0,0 UV-I 0 W/m 0,6 C 0,6 C 10,4 km/h (2 Bft)
15.11.2016 23:00 23,3 C 1,2 C 48 % 97 % 1026,6 hPa 0,2 l/m 5,5 km/h (1 Bft) S 0,00 h 0,0 UV-I 0 W/m 0,8 C 0,8 C 9,4 km/h (2 Bft)
16.11.2016 00:00 23,2 C 1,5 C 48 % 97 % 1026,4 hPa 2,4 l/m 4,3 km/h (1 Bft) S 0,00 h 0,0 UV-I 0 W/m 1,1 C 1,4 C 7,5 km/h (2 Bft)
16.11.2016 01:00 23,1 C 1,7 C 49 % 97 % 1026,1 hPa 2,8 l/m 2,9 km/h (1 Bft) S 0,00 h 0,0 UV-I 0 W/m 1,3 C 1,7 C 5,5 km/h (1 Bft)
16.11.2016 02:00 23,1 C 1,9 C 49 % 97 % 1025,6 hPa 0,8 l/m 1,8 km/h (1 Bft) S 0,00 h 0,0 UV-I 0 W/m 1,5 C 1,9 C 4,4 km/h (1 Bft)
16.11.2016 03:00 23,0 C 2,1 C 49 % 97 % 1025,1 hPa 0,0 l/m 0,8 km/h (0 Bft) S 0,00 h 0,0 UV-I 0 W/m 1,7 C 2,1 C 1,9 km/h (1 Bft)
16.11.2016 04:00 23,0 C 2,2 C 50 % 97 % 1024,5 hPa 0,4 l/m 0,3 km/h (0 Bft) S 0,00 h 0,0 UV-I 0 W/m 1,8 C 2,2 C 1,2 km/h (1 Bft)
16.11.2016 05:00 22,8 C 2,6 C 50 % 97 % 1024,0 hPa 0,8 l/m 0,2 km/h (0 Bft) S 0,00 h 0,0 UV-I 0 W/m 2,2 C 2,6 C 0,9 km/h (0 Bft)
16.11.2016 06:00 22,8 C 2,7 C 50 % 97 % 1023,6 hPa 1,2 l/m 0,0 km/h (0 Bft) N 0,00 h 0,0 UV-I 0 W/m 2,4 C 2,7 C 0,0 km/h (0 Bft)
16.11.2016 07:00 22,7 C 2,9 C 50 % 97 % 1023,2 hPa 0,6 l/m 0,0 km/h (0 Bft) N 0,00 h 0,0 UV-I 0 W/m 2,4 C 2,9 C 0,0 km/h (0 Bft)
16.11.2016 08:00 23,0 C 3,1 C 51 % 98 % 1023,0 hPa 1,0 l/m 0,0 km/h (0 Bft) N 0,00 h 0,0 UV-I 13 W/m 2,8 C 3,1 C 0,0 km/h (0 Bft)
16.11.2016 09:00 23,4 C 3,6 C 51 % 98 % 1022,3 hPa 0,0 l/m 0,3 km/h (0 Bft) S 0,00 h 0,0 UV-I 25 W/m 3,3 C 3,6 C 1,2 km/h (1 Bft)
16.11.2016 10:00 23,3 C 4,2 C 51 % 98 % 1021,8 hPa 0,0 l/m 0,6 km/h (0 Bft) S 0,00 h 0,0 UV-I 40 W/m 3,9 C 4,2 C 2,3 km/h (1 Bft)
16.11.2016 11:00 23,4 C 4,7 C 51 % 98 % 1021,1 hPa 0,2 l/m 1,6 km/h (1 Bft) S-SW 0,00 h 0,0 UV-I 42 W/m 4,4 C 4,7 C 4,7 km/h (1 Bft)
16.11.2016 12:00 23,4 C 5,1 C 52 % 98 % 1020,2 hPa 0,0 l/m 1,6 km/h (1 Bft) S 0,00 h 0,0 UV-I 44 W/m 4,8 C 5,0 C 4,4 km/h (1 Bft)
16.11.2016 13:00 23,4 C 5,6 C 51 % 98 % 1019,4 hPa 0,0 l/m 0,7 km/h (0 Bft) SW 0,00 h 0,0 UV-I 30 W/m 5,3 C 5,6 C 2,9 km/h (1 Bft)
16.11.2016 14:00 23,6 C 5,9 C 51 % 98 % 1018,8 hPa 0,0 l/m 1,3 km/h (1 Bft) S-SW 0,00 h 0,0 UV-I 20 W/m 5,6 C 5,9 C 3,9 km/h (1 Bft)
16.11.2016 15:00 23,7 C 6,1 C 50 % 98 % 1018,4 hPa 0,0 l/m 2,4 km/h (1 Bft) S 0,00 h 0,0 UV-I 9 W/m 5,8 C 6,1 C 6,3 km/h (2 Bft)
16.11.2016 16:00 23,9 C 6,1 C 51 % 98 % 1018,1 hPa 0,0 l/m 0,5 km/h (0 Bft) S 0,00 h 0,0 UV-I 0 W/m 5,8 C 6,1 C 2,2 km/h (1 Bft)
16.11.2016 17:00 23,7 C 6,5 C 50 % 98 % 1017,7 hPa 0,4 l/m 0,4 km/h (0 Bft) S-SW 0,00 h 0,0 UV-I 0 W/m 6,2 C 6,5 C 1,7 km/h (1 Bft)
16.11.2016 18:00 23,8 C 6,8 C 51 % 98 % 1017,6 hPa 0,2 l/m 0,4 km/h (0 Bft) S 0,00 h 0,0 UV-I 0 W/m 6,5 C 6,8 C 2,0 km/h (1 Bft)
16.11.2016 19:00 23,8 C 7,0 C 52 % 98 % 1017,2 hPa 0,0 l/m 1,4 km/h (1 Bft) S 0,00 h 0,0 UV-I 0 W/m 6,7 C 7,0 C 5,2 km/h (1 Bft)
16.11.2016 20:00 23,8 C 7,2 C 52 % 98 % 1016,8 hPa 0,2 l/m 2,0 km/h (1 Bft) S 0,00 h 0,0 UV-I 0 W/m 6,9 C 7,2 C 6,0 km/h (2 Bft)
16.11.2016 21:00 24,0 C 7,3 C 52 % 98 % 1016,5 hPa 0,0 l/m 1,0 km/h (0 Bft) S 0,00 h 0,0 UV-I 0 W/m 7,0 C 7,3 C 3,5 km/h (1 Bft)
16.11.2016 22:00 24,1 C 7,5 C 52 % 98 % 1016,1 hPa 0,0 l/m 1,6 km/h (1 Bft) SW 0,00 h 0,0 UV-I 0 W/m 7,2 C 7,5 C 4,8 km/h (1 Bft)
16.11.2016 23:00 23,8 C 7,7 C 52 % 98 % 1015,9 hPa 0,2 l/m 2,9 km/h (1 Bft) SW 0,00 h 0,0 UV-I 0 W/m 7,4 C 7,7 C 7,7 km/h (2 Bft)
17.11.2016 00:00 23,5 C 7,7 C 52 % 98 % 1015,6 hPa 0,2 l/m 3,1 km/h (1 Bft) SW 0,00 h 0,0 UV-I 0 W/m 7,4 C 7,7 C 8,5 km/h (2 Bft)
17.11.2016 01:00 23,4 C 7,7 C 52 % 98 % 1015,1 hPa 0,2 l/m 2,0 km/h (1 Bft) SW 0,00 h 0,0 UV-I 0 W/m 7,4 C 7,7 C 6,4 km/h (2 Bft)
17.11.2016 02:00 23,3 C 7,6 C 53 % 98 % 1014,7 hPa 0,0 l/m 0,9 km/h (0 Bft) SW 0,00 h 0,0 UV-I 0 W/m 7,3 C 7,6 C 3,9 km/h (1 Bft)
17.11.2016 03:00 23,2 C 7,5 C 53 % 98 % 1014,5 hPa 0,0 l/m 0,8 km/h (0 Bft) SW 0,00 h 0,0 UV-I 0 W/m 7,2 C 7,5 C 3,7 km/h (1 Bft)
17.11.2016 04:00 23,2 C 7,4 C 53 % 98 % 1013,7 hPa 0,0 l/m 1,0 km/h (0 Bft) S-SW 0,00 h 0,0 UV-I 0 W/m 7,1 C 7,4 C 3,3 km/h (1 Bft)
17.11.2016 05:00 23,1 C 7,5 C 53 % 98 % 1013,4 hPa 0,0 l/m 2,3 km/h (1 Bft) SW 0,00 h 0,0 UV-I 0 W/m 7,2 C 7,4 C 6,8 km/h (2 Bft)
17.11.2016 06:00 23,1 C 7,6 C 54 % 98 % 1013,1 hPa 0,0 l/m 1,5 km/h (1 Bft) SW 0,00 h 0,0 UV-I 0 W/m 7,3 C 7,6 C 5,8 km/h (2 Bft)
17.11.2016 07:00 23,1 C 7,5 C 54 % 98 % 1013,0 hPa 0,0 l/m 0,8 km/h (0 Bft) S 0,00 h 0,0 UV-I 7 W/m 7,2 C 7,5 C 3,2 km/h (1 Bft)
17.11.2016 08:00 23,3 C 7,4 C 55 % 98 % 1012,8 hPa 0,2 l/m 4,8 km/h (1 Bft) S 0,00 h 0,0 UV-I 10 W/m 7,1 C 7,1 C 10,1 km/h (2 Bft)
17.11.2016 09:00 23,6 C 7,6 C 54 % 97 % 1012,2 hPa 0,0 l/m 7,2 km/h (2 Bft) S 0,00 h 0,0 UV-I 26 W/m 7,3 C 6,6 C 13,4 km/h (3 Bft)
17.11.2016 10:00 23,8 C 7,7 C 54 % 97 % 1012,1 hPa 0,2 l/m 7,2 km/h (2 Bft) S 0,00 h 0,5 UV-I 24 W/m 7,3 C 6,3 C 13,8 km/h (3 Bft)
17.11.2016 11:00 23,8 C 7,9 C 54 % 97 % 1011,7 hPa 0,0 l/m 4,6 km/h (1 Bft) SW 0,00 h 0,5 UV-I 24 W/m 7,5 C 7,6 C 10,7 km/h (2 Bft)
17.11.2016 12:00 23,9 C 8,2 C 55 % 97 % 1011,2 hPa 0,2 l/m 4,1 km/h (1 Bft) SW 0,00 h 0,6 UV-I 57 W/m 7,8 C 8,0 C 10,9 km/h (2 Bft)
17.11.2016 13:00 23,8 C 8,4 C 55 % 96 % 1010,9 hPa 0,0 l/m 2,4 km/h (1 Bft) SW 0,00 h 0,0 UV-I 29 W/m 7,8 C 8,4 C 6,8 km/h (2 Bft)
17.11.2016 14:00 23,8 C 8,5 C 55 % 96 % 1010,6 hPa 0,0 l/m 2,7 km/h (1 Bft) SW 0,00 h 0,0 UV-I 24 W/m 7,9 C 8,5 C 8,0 km/h (2 Bft)
17.11.2016 15:00 23,8 C 8,7 C 55 % 95 % 1010,5 hPa 0,0 l/m 3,2 km/h (1 Bft) S 0,00 h 0,0 UV-I 17 W/m 7,9 C 8,6 C 8,0 km/h (2 Bft)
17.11.2016 16:00 23,8 C 8,6 C 54 % 95 % 1010,2 hPa 0,0 l/m 3,7 km/h (1 Bft) S 0,00 h 0,0 UV-I 5 W/m 7,8 C 8,5 C 8,4 km/h (2 Bft)
17.11.2016 17:00 23,7 C 8,7 C 55 % 94 % 1009,9 hPa 0,0 l/m 6,2 km/h (2 Bft) S 0,00 h 0,0 UV-I 0 W/m 7,8 C 7,9 C 12,2 km/h (2 Bft)
17.11.2016 18:00 23,7 C 8,6 C 54 % 94 % 1009,6 hPa 0,0 l/m 4,8 km/h (1 Bft) S 0,00 h 0,0 UV-I 0 W/m 7,7 C 8,3 C 10,6 km/h (2 Bft)
17.11.2016 19:00 23,8 C 8,5 C 55 % 95 % 1009,4 hPa 0,0 l/m 7,7 km/h (2 Bft) S 0,00 h 0,0 UV-I 0 W/m 7,8 C 7,1 C 15,3 km/h (3 Bft)
17.11.2016 20:00 23,8 C 8,6 C 56 % 94 % 1009,2 hPa 0,0 l/m 5,3 km/h (1 Bft) S 0,00 h 0,0 UV-I 0 W/m 7,7 C 8,0 C 11,5 km/h (2 Bft)
17.11.2016 21:00 23,8 C 8,5 C 56 % 93 % 1009,1 hPa 0,0 l/m 9,1 km/h (2 Bft) S 0,00 h 0,0 UV-I 0 W/m 7,5 C 6,4 C 15,1 km/h (3 Bft)
17.11.2016 22:00 23,9 C 8,3 C 55 % 93 % 1008,7 hPa 0,0 l/m 9,4 km/h (2 Bft) S 0,00 h 0,0 UV-I 0 W/m 7,2 C 6,1 C 15,1 km/h (3 Bft)
17.11.2016 23:00 23,7 C 7,7 C 54 % 94 % 1008,2 hPa 0,0 l/m 8,5 km/h (2 Bft) S 0,00 h 0,0 UV-I 0 W/m 6,8 C 5,9 C 13,3 km/h (3 Bft)
18.11.2016 00:00 23,5 C 7,9 C 55 % 93 % 1007,5 hPa 0,0 l/m 13,1 km/h (3 Bft) S 0,00 h 0,0 UV-I 0 W/m 6,9 C 3,7 C 20,5 km/h (4 Bft)
18.11.2016 01:00 23,7 C 8,3 C 56 % 91 % 1007,0 hPa 0,0 l/m 13,8 km/h (3 Bft) S 0,00 h 0,0 UV-I 0 W/m 7,0 C 3,8 C 21,4 km/h (4 Bft)
18.11.2016 02:00 23,9 C 8,4 C 57 % 91 % 1006,5 hPa 0,0 l/m 13,7 km/h (3 Bft) S 0,00 h 0,0 UV-I 0 W/m 7,0 C 3,9 C 20,5 km/h (4 Bft)
18.11.2016 03:00 23,8 C 8,7 C 57 % 90 % 1005,7 hPa 0,0 l/m 15,6 km/h (3 Bft) S 0,00 h 0,0 UV-I 0 W/m 7,1 C 3,4 C 23,9 km/h (4 Bft)
18.11.2016 04:00 23,4 C 9,0 C 56 % 89 % 1005,2 hPa 0,0 l/m 13,7 km/h (3 Bft) S 0,00 h 0,0 UV-I 0 W/m 7,2 C 4,6 C 21,2 km/h (4 Bft)
18.11.2016 05:00 23,3 C 9,0 C 56 % 88 % 1004,9 hPa 0,0 l/m 13,5 km/h (3 Bft) S 0,00 h 0,0 UV-I 0 W/m 7,1 C 4,7 C 20,9 km/h (4 Bft)
18.11.2016 06:00 23,2 C 8,5 C 56 % 92 % 1004,8 hPa 0,2 l/m 11,1 km/h (2 Bft) S 0,00 h 0,0 UV-I 0 W/m 7,3 C 5,5 C 17,7 km/h (3 Bft)
18.11.2016 07:00 23,1 C 8,1 C 56 % 93 % 1004,8 hPa 0,6 l/m 14,9 km/h (3 Bft) S 0,00 h 0,0 UV-I 6 W/m 7,1 C 3,1 C 22,7 km/h (4 Bft)
18.11.2016 08:00 23,2 C 8,2 C 56 % 93 % 1004,7 hPa 0,2 l/m 16,1 km/h (3 Bft) S 0,00 h 0,0 UV-I 16 W/m 7,1 C 2,5 C 24,1 km/h (4 Bft)
18.11.2016 09:00 23,4 C 9,0 C 57 % 88 % 1004,3 hPa 0,0 l/m 17,8 km/h (3 Bft) S 0,00 h 0,0 UV-I 47 W/m 7,2 C 2,9 C 27,4 km/h (4 Bft)
18.11.2016 10:00 23,4 C 10,2 C 56 % 83 % 1004,4 hPa 0,0 l/m 16,8 km/h (3 Bft) S 0,00 h 0,7 UV-I 92 W/m 7,3 C 4,7 C 26,6 km/h (4 Bft)
18.11.2016 11:00 23,5 C 10,9 C 54 % 80 % 1003,7 hPa 0,0 l/m 16,3 km/h (3 Bft) S 0,70 h 1,0 UV-I 182 W/m 7,6 C 5,9 C 24,9 km/h (4 Bft)
18.11.2016 12:00 23,6 C 11,3 C 53 % 79 % 1003,1 hPa 0,0 l/m 17,1 km/h (3 Bft) S 0,17 h 0,8 UV-I 114 W/m 7,9 C 6,1 C 26,5 km/h (4 Bft)
18.11.2016 13:00 23,6 C 10,1 C 52 % 88 % 1003,6 hPa 0,6 l/m 18,4 km/h (3 Bft) S 0,00 h 0,5 UV-I 53 W/m 8,3 C 4,1 C 28,2 km/h (4 Bft)
18.11.2016 14:00 23,5 C 9,6 C 52 % 92 % 1004,2 hPa 0,4 l/m 14,5 km/h (3 Bft) S 0,00 h 0,0 UV-I 31 W/m 8,4 C 5,1 C 22,3 km/h (4 Bft)
18.11.2016 15:00 23,6 C 9,5 C 53 % 93 % 1004,2 hPa 2,4 l/m 9,0 km/h (2 Bft) S 0,00 h 0,0 UV-I 7 W/m 8,3 C 7,3 C 14,2 km/h (3 Bft)
18.11.2016 16:00 23,8 C 8,1 C 53 % 93 % 1005,8 hPa 0,6 l/m 9,1 km/h (2 Bft) W-SW 0,00 h 0,0 UV-I 0 W/m 7,1 C 6,1 C 14,9 km/h (3 Bft)
18.11.2016 17:00 23,7 C 7,2 C 53 % 93 % 1006,9 hPa 0,8 l/m 3,7 km/h (1 Bft) SW 0,00 h 0,0 UV-I 0 W/m 6,1 C 7,0 C 6,8 km/h (2 Bft)
18.11.2016 18:00 24,0 C 6,6 C 53 % 94 % 1008,5 hPa 1,0 l/m 5,7 km/h (1 Bft) W-SW 0,00 h 0,0 UV-I 0 W/m 5,7 C 5,8 C 10,2 km/h (2 Bft)
18.11.2016 19:00 24,1 C 6,0 C 54 % 93 % 1009,1 hPa 0,0 l/m 6,8 km/h (2 Bft) S 0,00 h 0,0 UV-I 0 W/m 4,9 C 5,0 C 11,9 km/h (2 Bft)
18.11.2016 20:00 24,1 C 5,4 C 53 % 93 % 1009,4 hPa 0,0 l/m 8,0 km/h (2 Bft) S 0,00 h 0,0 UV-I 0 W/m 4,3 C 3,8 C 12,5 km/h (3 Bft)
18.11.2016 21:00 24,1 C 5,3 C 53 % 93 % 1010,0 hPa 0,0 l/m 9,0 km/h (2 Bft) S 0,00 h 0,0 UV-I 0 W/m 4,2 C 3,2 C 13,7 km/h (3 Bft)
18.11.2016 22:00 24,1 C 5,3 C 52 % 93 % 1010,5 hPa 0,0 l/m 5,3 km/h (1 Bft) S 0,00 h 0,0 UV-I 0 W/m 4,2 C 5,0 C 9,2 km/h (2 Bft)
18.11.2016 23:00 23,7 C 5,3 C 51 % 93 % 1011,3 hPa 0,4 l/m 6,6 km/h (2 Bft) S 0,00 h 0,0 UV-I 0 W/m 4,2 C 4,6 C 11,4 km/h (2 Bft)
19.11.2016 00:00 23,6 C 5,1 C 52 % 93 % 1011,2 hPa 0,0 l/m 8,5 km/h (2 Bft) S 0,00 h 0,0 UV-I 0 W/m 4,0 C 3,4 C 13,2 km/h (3 Bft)
19.11.2016 01:00 23,5 C 5,0 C 52 % 93 % 1011,2 hPa 0,0 l/m 6,4 km/h (2 Bft) S-SO 0,00 h 0,0 UV-I 0 W/m 4,0 C 4,5 C 10,4 km/h (2 Bft)
19.11.2016 02:00 23,4 C 5,1 C 52 % 94 % 1010,8 hPa 0,0 l/m 2,6 km/h (1 Bft) S 0,00 h 0,0 UV-I 0 W/m 4,2 C 5,0 C 5,2 km/h (1 Bft)
19.11.2016 03:00 23,3 C 5,3 C 53 % 94 % 1010,8 hPa 0,0 l/m 6,4 km/h (2 Bft) S-SO 0,00 h 0,0 UV-I 0 W/m 4,4 C 4,5 C 11,0 km/h (2 Bft)
19.11.2016 04:00 23,3 C 5,5 C 53 % 94 % 1010,7 hPa 0,0 l/m 5,8 km/h (2 Bft) S-SO 0,00 h 0,0 UV-I 0 W/m 4,7 C 4,7 C 9,4 km/h (2 Bft)
19.11.2016 05:00 23,3 C 5,6 C 53 % 93 % 1010,5 hPa 0,0 l/m 2,2 km/h (1 Bft) S 0,00 h 0,0 UV-I 0 W/m 4,6 C 5,5 C 4,2 km/h (1 Bft)
19.11.2016 06:00 23,2 C 5,6 C 53 % 92 % 1010,2 hPa 0,0 l/m 4,9 km/h (1 Bft) S-SO 0,00 h 0,0 UV-I 0 W/m 4,5 C 5,1 C 8,1 km/h (2 Bft)
19.11.2016 07:00 23,3 C 5,7 C 54 % 93 % 1009,9 hPa 0,0 l/m 10,3 km/h (2 Bft) S-SO 0,00 h 0,0 UV-I 5 W/m 4,6 C 2,8 C 15,6 km/h (3 Bft)
19.11.2016 08:00 23,4 C 5,8 C 54 % 92 % 1009,8 hPa 0,0 l/m 8,2 km/h (2 Bft) S-SO 0,00 h 0,0 UV-I 15 W/m 4,6 C 4,3 C 13,0 km/h (3 Bft)
19.11.2016 09:00 23,8 C 6,0 C 54 % 91 % 1009,4 hPa 0,0 l/m 3,3 km/h (1 Bft) S-SO 0,00 h 0,0 UV-I 38 W/m 4,6 C 5,5 C 5,6 km/h (1 Bft)
19.11.2016 10:00 24,0 C 6,1 C 54 % 91 % 1009,1 hPa 0,0 l/m 8,1 km/h (2 Bft) S-SO 0,00 h 0,5 UV-I 65 W/m 4,7 C 4,6 C 12,4 km/h (3 Bft)
19.11.2016 11:00 23,9 C 6,3 C 54 % 92 % 1008,5 hPa 0,2 l/m 2,9 km/h (1 Bft) S-SO 0,00 h 0,6 UV-I 49 W/m 5,0 C 5,9 C 4,4 km/h (1 Bft)
19.11.2016 12:00 23,9 C 6,1 C 54 % 93 % 1008,5 hPa 2,4 l/m 1,0 km/h (0 Bft) S 0,00 h 0,0 UV-I 19 W/m 5,1 C 6,1 C 2,2 km/h (1 Bft)
19.11.2016 13:00 24,1 C 5,6 C 53 % 94 % 1008,8 hPa 1,6 l/m 4,5 km/h (1 Bft) S 0,00 h 0,0 UV-I 30 W/m 4,7 C 5,3 C 8,6 km/h (2 Bft)
19.11.2016 14:00 24,3 C 5,2 C 52 % 95 % 1008,8 hPa 1,0 l/m 1,0 km/h (0 Bft) W 0,00 h 0,0 UV-I 16 W/m 4,4 C 5,2 C 2,2 km/h (1 Bft)
19.11.2016 15:00 24,2 C 5,1 C 52 % 95 % 1009,2 hPa 0,6 l/m 2,6 km/h (1 Bft) W 0,00 h 0,0 UV-I 11 W/m 4,4 C 4,3 C 4,7 km/h (1 Bft)
19.11.2016 16:00 24,2 C 4,5 C 52 % 94 % 1010,6 hPa 0,0 l/m 8,8 km/h (2 Bft) W 0,00 h 0,0 UV-I 0 W/m 3,5 C 2,1 C 14,6 km/h (3 Bft)
19.11.2016 17:00 24,4 C 3,8 C 54 % 94 % 1011,5 hPa 0,0 l/m 2,2 km/h (1 Bft) SW 0,00 h 0,0 UV-I 0 W/m 2,9 C 3,7 C 5,2 km/h (1 Bft)
19.11.2016 18:00 24,4 C 3,6 C 54 % 94 % 1012,1 hPa 0,0 l/m 5,0 km/h (1 Bft) S 0,00 h 0,0 UV-I 0 W/m 2,8 C 3,3 C 8,9 km/h (2 Bft)
19.11.2016 19:00 24,3 C 3,7 C 55 % 95 % 1013,1 hPa 0,0 l/m 8,1 km/h (2 Bft) S 0,00 h 0,0 UV-I 0 W/m 3,0 C 2,0 C 13,0 km/h (3 Bft)
19.11.2016 20:00 24,1 C 3,7 C 53 % 95 % 1013,5 hPa 0,0 l/m 6,4 km/h (2 Bft) S 0,00 h 0,0 UV-I 0 W/m 3,0 C 3,2 C 10,9 km/h (2 Bft)
19.11.2016 21:00 24,2 C 3,5 C 54 % 95 % 1013,4 hPa 0,0 l/m 4,4 km/h (1 Bft) S 0,00 h 0,0 UV-I 0 W/m 2,8 C 3,0 C 7,9 km/h (2 Bft)
19.11.2016 22:00 24,4 C 3,1 C 55 % 94 % 1013,3 hPa 0,0 l/m 3,9 km/h (1 Bft) S-SO 0,00 h 0,0 UV-I 0 W/m 2,3 C 2,8 C 7,3 km/h (2 Bft)
19.11.2016 23:00 24,4 C 2,8 C 55 % 95 % 1012,9 hPa 0,0 l/m 4,0 km/h (1 Bft) S-SO 0,00 h 0,0 UV-I 0 W/m 2,1 C 2,5 C 6,7 km/h (2 Bft)
20.11.2016 00:00 24,0 C 2,9 C 54 % 95 % 1012,8 hPa 0,0 l/m 2,4 km/h (1 Bft) SO 0,00 h 0,0 UV-I 0 W/m 2,2 C 2,8 C 4,8 km/h (1 Bft)
20.11.2016 01:00 23,8 C 2,9 C 54 % 95 % 1012,3 hPa 0,0 l/m 3,0 km/h (1 Bft) S-SO 0,00 h 0,0 UV-I 0 W/m 2,2 C 2,5 C 5,8 km/h (2 Bft)
20.11.2016 02:00 23,7 C 2,8 C 54 % 95 % 1012,1 hPa 0,0 l/m 1,4 km/h (1 Bft) SO 0,00 h 0,0 UV-I 0 W/m 2,0 C 2,8 C 2,9 km/h (1 Bft)
20.11.2016 03:00 23,6 C 2,5 C 55 % 94 % 1011,7 hPa 0,0 l/m 1,7 km/h (1 Bft) O 0,00 h 0,0 UV-I 0 W/m 1,7 C 2,5 C 3,5 km/h (1 Bft)
20.11.2016 04:00 23,6 C 2,5 C 55 % 94 % 1011,2 hPa 0,0 l/m 3,2 km/h (1 Bft) O-SO 0,00 h 0,0 UV-I 0 W/m 1,6 C 2,5 C 6,0 km/h (2 Bft)
20.11.2016 05:00 23,5 C 2,9 C 55 % 92 % 1010,7 hPa 0,2 l/m 3,1 km/h (1 Bft) O-SO 0,00 h 0,0 UV-I 0 W/m 1,7 C 2,9 C 6,4 km/h (2 Bft)
20.11.2016 06:00 23,4 C 2,6 C 55 % 92 % 1009,9 hPa 0,0 l/m 2,0 km/h (1 Bft) O-NO 0,00 h 0,0 UV-I 0 W/m 1,4 C 2,6 C 4,3 km/h (1 Bft)
20.11.2016 07:00 23,6 C 2,4 C 56 % 92 % 1010,3 hPa 0,0 l/m 0,0 km/h (0 Bft) N 0,00 h 0,0 UV-I 14 W/m 1,3 C 2,4 C 0,0 km/h (0 Bft)
20.11.2016 08:00 23,7 C 2,8 C 56 % 92 % 1010,2 hPa 0,0 l/m 0,1 km/h (0 Bft) NO 0,00 h 0,0 UV-I 73 W/m 1,6 C 2,8 C 0,3 km/h (0 Bft)
20.11.2016 09:00 23,9 C 3,5 C 56 % 90 % 1009,4 hPa 0,0 l/m 0,5 km/h (0 Bft) O 0,00 h 0,5 UV-I 103 W/m 2,0 C 3,5 C 1,5 km/h (1 Bft)
20.11.2016 10:00 24,2 C 5,2 C 57 % 85 % 1009,4 hPa 0,0 l/m 0,9 km/h (0 Bft) O 0,87 h 0,9 UV-I 275 W/m 3,0 C 5,2 C 2,1 km/h (1 Bft)
20.11.2016 11:00 24,0 C 7,5 C 54 % 77 % 1009,1 hPa 0,0 l/m 3,4 km/h (1 Bft) SO 1,00 h 1,1 UV-I 321 W/m 3,8 C 7,0 C 6,1 km/h (2 Bft)
20.11.2016 12:00 23,9 C 9,4 C 51 % 73 % 1008,7 hPa 0,0 l/m 0,0 km/h (0 Bft) N 1,00 h 1,1 UV-I 319 W/m 4,9 C 9,4 C 0,1 km/h (0 Bft)
20.11.2016 13:00 24,0 C 10,7 C 51 % 69 % 1008,1 hPa 0,0 l/m 1,2 km/h (1 Bft) SO 0,97 h 0,9 UV-I 249 W/m 5,2 C 10,5 C 2,5 km/h (1 Bft)
20.11.2016 14:00 24,3 C 11,0 C 50 % 67 % 1008,3 hPa 0,0 l/m 3,7 km/h (1 Bft) S-SO 0,47 h 0,6 UV-I 150 W/m 5,2 C 10,3 C 6,8 km/h (2 Bft)
20.11.2016 15:00 24,5 C 10,0 C 49 % 71 % 1008,8 hPa 0,0 l/m 2,6 km/h (1 Bft) S-SO 0,00 h 0,0 UV-I 41 W/m 5,0 C 9,8 C 5,1 km/h (1 Bft)
20.11.2016 16:00 24,5 C 8,6 C 50 % 74 % 1008,6 hPa 0,0 l/m 3,4 km/h (1 Bft) SO 0,00 h 0,0 UV-I 7 W/m 4,2 C 8,2 C 6,0 km/h (2 Bft)
20.11.2016 17:00 24,4 C 7,4 C 50 % 76 % 1009,1 hPa 0,0 l/m 0,3 km/h (0 Bft) O 0,00 h 0,0 UV-I 0 W/m 3,3 C 7,4 C 0,8 km/h (0 Bft)
20.11.2016 18:00 24,5 C 5,1 C 51 % 81 % 1009,7 hPa 0,0 l/m 0,0 km/h (0 Bft) N 0,00 h 0,0 UV-I 0 W/m 2,2 C 5,1 C 0,0 km/h (0 Bft)
20.11.2016 19:00 24,2 C 3,3 C 50 % 87 % 1010,0 hPa 0,0 l/m 0,0 km/h (0 Bft) N 0,00 h 0,0 UV-I 0 W/m 1,4 C 3,3 C 0,0 km/h (0 Bft)
20.11.2016 20:00 24,3 C 2,1 C 51 % 90 % 1010,2 hPa 0,0 l/m 0,0 km/h (0 Bft) N 0,00 h 0,0 UV-I 0 W/m 0,6 C 2,1 C 0,0 km/h (0 Bft)
20.11.2016 21:00 24,3 C 1,3 C 52 % 92 % 1010,5 hPa 0,0 l/m 1,3 km/h (1 Bft) O 0,00 h 0,0 UV-I 0 W/m 0,2 C 1,3 C 2,9 km/h (1 Bft)
20.11.2016 22:00 24,4 C 1,3 C 52 % 93 % 1011,0 hPa 0,0 l/m 0,9 km/h (0 Bft) N 0,00 h 0,0 UV-I 0 W/m 0,4 C 1,3 C 1,8 km/h (1 Bft)
20.11.2016 23:00 24,0 C 0,5 C 50 % 93 % 1011,2 hPa 0,0 l/m 0,0 km/h (0 Bft) N 0,00 h 0,0 UV-I 0 W/m -0,5 C 0,5 C 0,1 km/h (0 Bft)
Min-Datum _ 15.11.16 14.11.16 15.11.16 20.11.16 18.11.16 - 14.11.16 - - - - 14.11.16 15.11.16 14.11.16
_ Min-Zeit 06:41 07:29 22:45 13:58 12:27 - 00:01 - - - - 07:29 09:52 00:01
Minimum _ 22,7 C -7,4 C 44 % 65 % 1002,7 hPa - 0,0 km/h (0 Bft) - - - - -8,6 C -9,8 C 0,0 km/h (0 Bft)
Max-Datum _ 20.11.16 18.11.16 17.11.16 16.11.16 14.11.16 16.11.16 18.11.16 - 14.11.16 14.11.16 14.11.16 18.11.16 20.11.16 18.11.16
_ Max-Zeit 16:31 12:06 20:19 05:41 09:22 01:02 13:21 - 11:49 11:14 12:00 13:10 13:36 10:59
Maximum _ 24,6 C 11,5 C 57 % 98 % 1036,6 hPa 2,8 l/m 29,0 km/h
S (5 Bft)
- 0,03 h 1,3 UV-I 369 W/m 8,5 C 11,2 C 46,7 km/h
S (6 Bft)
Durchschnitt _ 23,6 C 3,8 C 52 % 91 % 1017,8 hPa #27,0 l/m 4,5 km/h (1 Bft) S #10:52 h 0,8 UV-I 78 W/m 2,5 C 2,9 C 7,9 km/h (2 Bft)